Time,TemperatureF,DewpointF,PressureIn,WindDirection,WindDirectionDegrees,WindSpeedMPH,WindSpeedGustMPH,Humidity,HourlyPrecipIn,Conditions,Clouds,dailyrainin,SoftwareType,DateUTC
2013-06-29 00:01:00,72.0,57.0,29.78,WNW,300,10.0,-999.0,60,-99.99,,,-99.99,,2013-06-29 05:01:00,
2013-06-29 00:11:00,72.0,57.0,29.78,WNW,300,9.0,-999.0,60,-99.99,,,-99.99,,2013-06-29 05:11:00,
2013-06-29 00:21:00,72.0,57.0,29.78,WNW,300,8.0,-999.0,60,-99.99,,,-99.99,,2013-06-29 05:21:00,
2013-06-29 00:31:00,72.0,57.0,29.78,WNW,300,7.0,-999.0,60,-99.99,,,-99.99,,2013-06-29 05:31:00,
2013-06-29 00:41:00,72.0,57.0,29.78,WNW,300,8.0,-999.0,60,-99.99,,,-99.99,,2013-06-29 05:41:00,
2013-06-29 00:51:00,72.0,57.0,29.78,NW,310,10.0,-999.0,60,-99.99,,,-99.99,,2013-06-29 05:51:00,
2013-06-29 01:01:00,72.0,57.0,29.78,NW,320,9.0,-999.0,60,-99.99,,,-99.99,,2013-06-29 06:01:00,
2013-06-29 01:12:00,72.0,57.0,29.78,NW,310,9.0,-999.0,60,-99.99,,,-99.99,,2013-06-29 06:12:00,
2013-06-29 01:22:00,70.0,57.0,29.78,WNW,300,8.0,-999.0,64,-99.99,,,-99.99,,2013-06-29 06:22:00,
2013-06-29 01:33:00,70.0,57.0,29.78,WNW,300,7.0,-999.0,64,-99.99,,,-99.99,,2013-06-29 06:33:00,
2013-06-29 01:43:00,70.0,57.0,29.78,WNW,300,7.0,-999.0,64,-99.99,,,-99.99,,2013-06-29 06:43:00,
2013-06-29 01:53:00,70.0,57.0,29.77,WNW,300,8.0,-999.0,64,-99.99,,,-99.99,,2013-06-29 06:53:00,
2013-06-29 02:02:00,70.0,57.0,29.77,WNW,300,8.0,-999.0,64,-99.99,,,-99.99,,2013-06-29 07:02:00,
2013-06-29 02:12:00,68.0,57.0,29.77,WNW,290,8.0,-999.0,68,-99.99,,,-99.99,,2013-06-29 07:12:00,
2013-06-29 02:22:00,68.0,57.0,29.77,WNW,290,8.0,-999.0,68,-99.99,,,-99.99,,2013-06-29 07:22:00,
2013-06-29 02:33:00,68.0,57.0,29.77,WNW,290,7.0,-999.0,68,-99.99,,,-99.99,,2013-06-29 07:33:00,
2013-06-29 02:43:00,68.0,57.0,29.77,WNW,290,7.0,-999.0,68,-99.99,,,-99.99,,2013-06-29 07:43:00,
2013-06-29 02:53:00,68.0,57.0,29.77,WNW,290,7.0,-999.0,68,-99.99,,,-99.99,,2013-06-29 07:53:00,
2013-06-29 03:01:00,68.0,57.0,29.77,WNW,290,7.0,-999.0,68,-99.99,,,-99.99,,2013-06-29 08:01:00,
2013-06-29 03:12:00,68.0,57.0,29.77,WNW,300,8.0,-999.0,68,-99.99,,,-99.99,,2013-06-29 08:12:00,
2013-06-29 03:22:00,68.0,57.0,29.77,WNW,300,8.0,-999.0,68,-99.99,,,-99.99,,2013-06-29 08:22:00,
2013-06-29 03:33:00,68.0,57.0,29.77,WNW,290,8.0,-999.0,68,-99.99,,,-99.99,,2013-06-29 08:33:00,
2013-06-29 03:43:00,66.0,57.0,29.77,WNW,290,8.0,-999.0,72,-99.99,,,-99.99,,2013-06-29 08:43:00,
2013-06-29 03:52:00,66.0,57.0,29.78,West,280,8.0,-999.0,72,-99.99,,,-99.99,,2013-06-29 08:52:00,
2013-06-29 04:02:00,66.0,57.0,29.77,West,280,7.0,-999.0,72,-99.99,,,-99.99,,2013-06-29 09:02:00,
2013-06-29 04:12:00,66.0,57.0,29.77,WNW,290,8.0,-999.0,72,-99.99,,,-99.99,,2013-06-29 09:12:00,
2013-06-29 04:22:00,66.0,57.0,29.77,WNW,290,9.0,-999.0,72,-99.99,,,-99.99,,2013-06-29 09:22:00,
2013-06-29 04:33:00,66.0,57.0,29.77,WNW,290,9.0,-999.0,72,-99.99,,,-99.99,,2013-06-29 09:33:00,
2013-06-29 04:42:00,66.0,57.0,29.77,WNW,290,8.0,-999.0,72,-99.99,,,-99.99,,2013-06-29 09:42:00,
2013-06-29 04:53:00,66.0,57.0,29.77,West,280,9.0,-999.0,72,-99.99,,,-99.99,,2013-06-29 09:53:00,
2013-06-29 05:01:00,66.0,57.0,29.78,West,280,8.0,-999.0,72,-99.99,,,-99.99,,2013-06-29 10:01:00,
2013-06-29 05:11:00,66.0,57.0,29.78,West,270,7.0,-999.0,72,-99.99,,,-99.99,,2013-06-29 10:11:00,
2013-06-29 05:22:00,66.0,57.0,29.78,West,280,8.0,-999.0,72,-99.99,,,-99.99,,2013-06-29 10:22:00,
2013-06-29 05:33:00,66.0,57.0,29.78,West,280,9.0,-999.0,72,-99.99,,,-99.99,,2013-06-29 10:33:00,
2013-06-29 05:43:00,66.0,57.0,29.78,West,280,9.0,-999.0,72,-99.99,,,-99.99,,2013-06-29 10:43:00,
2013-06-29 05:52:00,64.0,57.0,29.78,West,280,8.0,-999.0,77,-99.99,,,-99.99,,2013-06-29 10:52:00,
2013-06-29 06:02:00,66.0,57.0,29.78,West,280,8.0,-999.0,72,-99.99,,,-99.99,,2013-06-29 11:02:00,
2013-06-29 06:11:00,66.0,57.0,29.78,West,280,9.0,-999.0,72,-99.99,,,-99.99,,2013-06-29 11:11:00,
2013-06-29 06:23:00,66.0,57.0,29.79,WNW,290,13.0,-999.0,72,-99.99,,,-99.99,,2013-06-29 11:23:00,
2013-06-29 06:33:00,66.0,57.0,29.78,WNW,290,10.0,-999.0,72,-99.99,,,-99.99,,2013-06-29 11:33:00,
2013-06-29 06:43:00,66.0,57.0,29.78,WNW,290,10.0,-999.0,72,-99.99,,,-99.99,,2013-06-29 11:43:00,
2013-06-29 06:53:00,66.0,57.0,29.78,WNW,290,12.0,16.0,72,-99.99,,,-99.99,,2013-06-29 11:53:00,
2013-06-29 07:02:00,66.0,57.0,29.78,WNW,290,10.0,-999.0,72,-99.99,,,-99.99,,2013-06-29 12:02:00,
2013-06-29 07:12:00,66.0,57.0,29.78,WNW,290,13.0,-999.0,72,-99.99,,,-99.99,,2013-06-29 12:12:00,
2013-06-29 07:22:00,68.0,57.0,29.78,WNW,290,13.0,-999.0,68,-99.99,,,-99.99,,2013-06-29 12:22:00,
2013-06-29 07:34:00,68.0,57.0,29.78,WNW,290,10.0,-999.0,68,-99.99,,,-99.99,,2013-06-29 12:34:00,
2013-06-29 07:43:00,68.0,57.0,29.78,WNW,290,12.0,-999.0,68,-99.99,,,-99.99,,2013-06-29 12:43:00,
2013-06-29 07:53:00,68.0,59.0,29.78,WNW,300,10.0,16.0,72,-99.99,,,-99.99,,2013-06-29 12:53:00,
2013-06-29 08:02:00,68.0,59.0,29.78,WNW,300,12.0,-999.0,72,-99.99,,,-99.99,,2013-06-29 13:02:00,
2013-06-29 08:11:00,70.0,59.0,29.78,WNW,290,14.0,-999.0,68,-99.99,,,-99.99,,2013-06-29 13:11:00,
2013-06-29 08:23:00,70.0,59.0,29.78,WNW,300,15.0,-999.0,68,-99.99,,,-99.99,,2013-06-29 13:23:00,
2013-06-29 08:34:00,70.0,59.0,29.78,WNW,300,12.0,-999.0,68,-99.99,,,-99.99,,2013-06-29 13:34:00,
2013-06-29 08:43:00,70.0,59.0,29.78,WNW,300,12.0,-999.0,68,-99.99,,,-99.99,,2013-06-29 13:43:00,
2013-06-29 08:53:00,72.0,59.0,29.78,WNW,300,15.0,23.0,64,-99.99,,,-99.99,,2013-06-29 13:53:00,
2013-06-29 09:02:00,72.0,59.0,29.78,NW,310,14.0,23.0,64,-99.99,,,-99.99,,2013-06-29 14:02:00,
2013-06-29 09:12:00,72.0,61.0,29.78,WNW,300,14.0,22.0,68,-99.99,,,-99.99,,2013-06-29 14:12:00,
2013-06-29 09:23:00,73.0,61.0,29.78,NW,310,16.0,24.0,64,-99.99,,,-99.99,,2013-06-29 14:23:00,
2013-06-29 09:34:00,73.0,61.0,29.78,WNW,300,17.0,22.0,64,-99.99,,,-99.99,,2013-06-29 14:34:00,
2013-06-29 09:44:00,73.0,61.0,29.77,NW,310,18.0,23.0,64,-99.99,,,-99.99,,2013-06-29 14:44:00,
2013-06-29 09:53:00,73.0,61.0,29.77,NW,310,21.0,-999.0,64,-99.99,,,-99.99,,2013-06-29 14:53:00,
2013-06-29 10:01:00,73.0,61.0,29.77,NW,310,13.0,27.0,64,-99.99,,,-99.99,,2013-06-29 15:01:00,
2013-06-29 10:11:00,75.0,61.0,29.77,WNW,290,18.0,25.0,60,-99.99,,,-99.99,,2013-06-29 15:11:00,
2013-06-29 10:22:00,75.0,61.0,29.76,WNW,300,20.0,25.0,60,-99.99,,,-99.99,,2013-06-29 15:22:00,
2013-06-29 10:33:00,75.0,59.0,29.76,NW,310,18.0,27.0,57,-99.99,,,-99.99,,2013-06-29 15:33:00,
2013-06-29 10:42:00,75.0,59.0,29.76,WNW,300,21.0,28.0,57,-99.99,,,-99.99,,2013-06-29 15:42:00,
2013-06-29 10:53:00,75.0,59.0,29.76,NNW,330,17.0,24.0,57,-99.99,,,-99.99,,2013-06-29 15:53:00,
2013-06-29 11:02:00,77.0,61.0,29.76,NW,320,18.0,25.0,57,-99.99,,,-99.99,,2013-06-29 16:02:00,
2013-06-29 11:12:00,77.0,61.0,29.76,NNW,330,16.0,25.0,57,-99.99,,,-99.99,,2013-06-29 16:12:00,
2013-06-29 11:22:00,75.0,59.0,29.76,WNW,300,20.0,24.0,57,-99.99,,,-99.99,,2013-06-29 16:22:00,
2013-06-29 11:33:00,75.0,59.0,29.76,WNW,300,20.0,24.0,57,-99.99,,,-99.99,,2013-06-29 16:33:00,
2013-06-29 11:43:00,77.0,59.0,29.76,NW,310,16.0,28.0,53,-99.99,,,-99.99,,2013-06-29 16:43:00,
2013-06-29 11:53:00,77.0,59.0,29.76,NW,320,13.0,22.0,53,-99.99,,,-99.99,,2013-06-29 16:53:00,
2013-06-29 12:01:00,79.0,61.0,29.76,NW,310,16.0,25.0,54,-99.99,,,-99.99,,2013-06-29 17:01:00,
2013-06-29 12:12:00,77.0,59.0,29.76,WNW,300,17.0,25.0,53,-99.99,,,-99.99,,2013-06-29 17:12:00,
2013-06-29 12:23:00,77.0,59.0,29.76,NW,310,22.0,28.0,53,-99.99,,,-99.99,,2013-06-29 17:23:00,
2013-06-29 12:34:00,79.0,59.0,29.76,NW,320,17.0,25.0,50,-99.99,,,-99.99,,2013-06-29 17:34:00,
2013-06-29 12:42:00,77.0,59.0,29.76,NW,310,18.0,27.0,53,-99.99,,,-99.99,,2013-06-29 17:42:00,
2013-06-29 12:52:00,79.0,59.0,29.76,NW,320,17.0,27.0,50,-99.99,,,-99.99,,2013-06-29 17:52:00,
2013-06-29 13:01:00,79.0,61.0,29.76,WNW,300,18.0,27.0,54,-99.99,,,-99.99,,2013-06-29 18:01:00,
2013-06-29 13:12:00,79.0,59.0,29.75,NW,310,15.0,23.0,50,-99.99,,,-99.99,,2013-06-29 18:12:00,
2013-06-29 13:22:00,81.0,59.0,29.75,WNW,300,15.0,20.0,47,-99.99,,,-99.99,,2013-06-29 18:22:00,
2013-06-29 13:34:00,81.0,59.0,29.74,NW,320,14.0,27.0,47,-99.99,,,-99.99,,2013-06-29 18:34:00,
2013-06-29 13:43:00,79.0,59.0,29.73,WNW,300,18.0,27.0,50,-99.99,,,-99.99,,2013-06-29 18:43:00,
2013-06-29 13:52:00,81.0,59.0,29.73,NW,310,22.0,27.0,47,-99.99,,,-99.99,,2013-06-29 18:52:00,
2013-06-29 14:01:00,81.0,57.0,29.73,NW,310,16.0,28.0,44,-99.99,,,-99.99,,2013-06-29 19:01:00,
2013-06-29 14:12:00,81.0,59.0,29.73,NNW,330,20.0,28.0,47,-99.99,,,-99.99,,2013-06-29 19:12:00,
2013-06-29 14:22:00,77.0,59.0,29.73,NW,310,24.0,30.0,53,-99.99,,,-99.99,,2013-06-29 19:22:00,
2013-06-29 14:34:00,79.0,59.0,29.73,WNW,300,23.0,28.0,50,-99.99,,,-99.99,,2013-06-29 19:34:00,
2013-06-29 14:43:00,77.0,59.0,29.73,NW,310,21.0,28.0,53,-99.99,,,-99.99,,2013-06-29 19:43:00,
2013-06-29 14:54:00,79.0,59.0,29.73,WNW,300,21.0,25.0,50,-99.99,,,-99.99,,2013-06-29 19:54:00,
2013-06-29 15:02:00,79.0,59.0,29.73,NW,310,18.0,27.0,50,-99.99,,,-99.99,,2013-06-29 20:02:00,
2013-06-29 15:11:00,81.0,59.0,29.73,NW,310,16.0,25.0,47,-99.99,,,-99.99,,2013-06-29 20:11:00,
2013-06-29 15:23:00,79.0,57.0,29.73,NW,320,16.0,27.0,47,-99.99,,,-99.99,,2013-06-29 20:23:00,
2013-06-29 15:33:00,77.0,57.0,29.73,NW,320,16.0,32.0,50,-99.99,,,-99.99,,2013-06-29 20:33:00,
2013-06-29 15:43:00,77.0,57.0,29.73,NW,320,14.0,21.0,50,-99.99,,,-99.99,,2013-06-29 20:43:00,
2013-06-29 15:52:00,79.0,59.0,29.72,NNW,330,14.0,18.0,50,-99.99,,,-99.99,,2013-06-29 20:52:00,
2013-06-29 16:02:00,77.0,61.0,29.73,NW,320,13.0,27.0,57,-99.99,,,-99.99,,2013-06-29 21:02:00,
2013-06-29 17:21:00,68.0,63.0,29.76,NNW,340,13.0,20.0,82,-99.99,,,-99.99,,2013-06-29 22:21:00,
2013-06-29 17:33:00,70.0,63.0,29.75,NNW,330,14.0,20.0,77,-99.99,,,-99.99,,2013-06-29 22:33:00,
2013-06-29 17:43:00,70.0,63.0,29.75,NW,310,10.0,-999.0,77,-99.99,,,-99.99,,2013-06-29 22:43:00,
2013-06-29 17:53:00,70.0,63.0,29.75,NW,310,10.0,-999.0,77,-99.99,,,-99.99,,2013-06-29 22:53:00,
2013-06-29 18:02:00,72.0,63.0,29.74,NW,310,10.0,-999.0,73,-99.99,,,-99.99,,2013-06-29 23:02:00,
2013-06-29 18:12:00,72.0,63.0,29.74,NW,320,12.0,20.0,73,-99.99,,,-99.99,,2013-06-29 23:12:00,
2013-06-29 18:23:00,70.0,63.0,29.74,NW,310,15.0,20.0,77,-99.99,,,-99.99,,2013-06-29 23:23:00,
2013-06-29 18:34:00,70.0,63.0,29.74,NW,310,15.0,20.0,77,-99.99,,,-99.99,,2013-06-29 23:34:00,
2013-06-29 18:43:00,70.0,63.0,29.75,NW,310,15.0,18.0,77,-99.99,,,-99.99,,2013-06-29 23:43:00,
2013-06-29 18:52:00,70.0,63.0,29.75,NW,310,16.0,23.0,77,-99.99,,,-99.99,,2013-06-29 23:52:00,
2013-06-29 19:02:00,70.0,63.0,29.75,NW,310,16.0,23.0,77,-99.99,,,-99.99,,2013-06-30 00:02:00,
2013-06-29 19:12:00,70.0,63.0,29.75,NW,310,16.0,23.0,77,-99.99,,,-99.99,,2013-06-30 00:12:00,
2013-06-29 19:22:00,70.0,63.0,29.76,NNW,330,10.0,-999.0,77,-99.99,,,-99.99,,2013-06-30 00:22:00,
2013-06-29 19:33:00,70.0,63.0,29.76,NNW,340,14.0,18.0,77,-99.99,,,-99.99,,2013-06-30 00:33:00,
2013-06-29 19:43:00,66.0,63.0,29.77,North,350,17.0,27.0,88,-99.99,,,-99.99,,2013-06-30 00:43:00,
2013-06-29 20:11:00,64.0,61.0,29.78,NNW,330,10.0,-999.0,88,-99.99,,,-99.99,,2013-06-30 01:11:00,
2013-06-29 20:22:00,64.0,61.0,29.78,NNW,340,8.0,-999.0,88,-99.99,,,-99.99,,2013-06-30 01:22:00,
2013-06-29 20:33:00,64.0,61.0,29.78,NNW,340,8.0,-999.0,88,-99.99,,,-99.99,,2013-06-30 01:33:00,
2013-06-29 20:44:00,63.0,61.0,29.78,NNW,340,9.0,-999.0,93,-99.99,,,-99.99,,2013-06-30 01:44:00,
2013-06-29 20:53:00,63.0,61.0,29.79,NNW,330,9.0,-999.0,93,-99.99,,,-99.99,,2013-06-30 01:53:00,
2013-06-29 21:02:00,63.0,61.0,29.79,NNW,330,9.0,-999.0,93,-99.99,,,-99.99,,2013-06-30 02:02:00,
2013-06-29 21:11:00,63.0,63.0,29.79,NNW,330,8.0,-999.0,100,-99.99,,,-99.99,,2013-06-30 02:11:00,
2013-06-29 21:23:00,63.0,63.0,29.79,NNW,330,8.0,-999.0,100,-99.99,,,-99.99,,2013-06-30 02:23:00,
2013-06-29 21:33:00,63.0,63.0,29.79,NW,320,9.0,-999.0,100,-99.99,,,-99.99,,2013-06-30 02:33:00,
2013-06-29 21:43:00,63.0,63.0,29.80,NW,320,7.0,-999.0,100,-99.99,,,-99.99,,2013-06-30 02:43:00,
2013-06-29 21:53:00,63.0,63.0,29.80,NW,320,6.0,-999.0,100,-99.99,,,-99.99,,2013-06-30 02:53:00,
2013-06-29 22:01:00,63.0,63.0,29.81,NNW,330,8.0,-999.0,100,-99.99,,,-99.99,,2013-06-30 03:01:00,
2013-06-29 22:12:00,64.0,64.0,29.81,NNW,340,8.0,-999.0,100,-99.99,,,-99.99,,2013-06-30 03:12:00,
2013-06-29 22:23:00,64.0,64.0,29.81,NNW,330,8.0,-999.0,100,-99.99,,,-99.99,,2013-06-30 03:23:00,
2013-06-29 22:33:00,64.0,64.0,29.81,NNW,330,8.0,-999.0,100,-99.99,,,-99.99,,2013-06-30 03:33:00,
2013-06-29 22:43:00,63.0,63.0,29.82,NNW,340,8.0,-999.0,100,-99.99,,,-99.99,,2013-06-30 03:43:00,
2013-06-29 22:53:00,63.0,63.0,29.82,NNW,340,8.0,-999.0,100,-99.99,,,-99.99,,2013-06-30 03:53:00,
2013-06-29 23:01:00,63.0,63.0,29.82,NNW,340,9.0,-999.0,100,-99.99,,,-99.99,,2013-06-30 04:01:00,
2013-06-29 23:12:00,63.0,63.0,29.82,North,350,9.0,-999.0,100,-99.99,,,-99.99,,2013-06-30 04:12:00,
2013-06-29 23:22:00,63.0,63.0,29.82,North,350,10.0,-999.0,100,-99.99,,,-99.99,,2013-06-30 04:22:00,
2013-06-29 23:33:00,63.0,63.0,29.82,North,350,9.0,-999.0,100,-99.99,,,-99.99,,2013-06-30 04:33:00,
2013-06-29 23:43:00,63.0,63.0,29.82,North,350,10.0,-999.0,100,-99.99,,,-99.99,,2013-06-30 04:43:00,
2013-06-29 23:53:00,63.0,63.0,29.82,NNW,340,10.0,16.0,100,-99.99,,,-99.99,,2013-06-30 04:53:00,